Flag for Germany Weather past 2 weeks in Troisdorf, North Rhine-Westphalia, Germany

Now
32 °F

Light snow. Ice fog.


Feels Like: 24 °F
Forecast: 15 / 28 °F
Wind: 10 mph from East

Location: Koeln / Bonn

Current Time: Dec 27, 2014 at 4:16:09 PM

Latest Report: Dec 27, 2014 at 3:50 PM


Visibility: 2 mi

Pressure: 29.42 "Hg

Humidity: 100%

Dew point: 32 °F

Location of TroisdorfLocation

Historic Weather in Troisdorf — Graph

°F

Troisdorf temperature yesterday

Maximum temperature yesterday: 39 °F (at 12:20 PM)
Minimum temperature yesterday: 34 °F (at 12:50 AM)
Average temperature yesterday: 37 °F

Past Weeks' High & Low Weather Summary

 TemperatureHumidityPressure
High55 °F (Dec 18, 5:20 PM)100% (Dec 13, 4:50 PM)30.42 "Hg (Dec 13, 4:50 PM)
Low30 °F (Dec 14, 10:50 PM)66% (Dec 24, 1:20 AM)29.39 "Hg (Dec 27, 1:20 PM)
Average43 °F86%30.02 "Hg
* Reported Dec 12 3:20 PM — Dec 27 3:20 PM, Troisdorf, Weather by CustomWeather, © 2014

Note: Actual official high and low records may vary slightly from our data, if they occured in-between our weather recording intervals... More about our weather records

Advertising

Troisdorf weather history for previous 24 hours

 ConditionsComfort  
Time TempWeatherWind HumidityBarometerVisibility
3:20 PM
Dec 27
32 °FSnow. Ice fog.10 mph100%29.39 "Hg1 mi
2:50 PM34 °FLight snow. Fog.8 mph100%29.39 "Hg2 mi
2:20 PM34 °FSnow. Partly sunny.10 mph100%29.39 "Hg1 mi
1:50 PM34 °FSnow. Broken clouds.10 mph100%29.39 "Hg2 mi
1:20 PM34 °FLight snow. Broken clouds.10 mph100%29.39 "Hg4 mi
12:50 PM34 °FLight rain. Mostly cloudy.12 mph100%29.42 "Hg5 mi
12:20 PM34 °FLight snow. Mostly cloudy.10 mph100%29.42 "Hg2 mi
11:50 AM32 °FSnow. Cloudy.12 mph100%29.42 "Hg1 mi
11:20 AM34 °FLight snow. Mostly cloudy.13 mph100%29.42 "Hg2 mi
10:50 AM32 °FLight snow. Mostly cloudy.17 mph100%29.45 "Hg1 mi
10:20 AM32 °FLight snow. Cloudy.17 mph100%29.45 "Hg2 mi
9:50 AM32 °FSnow. Cloudy.17 mph100%29.45 "Hg1 mi
9:20 AM32 °FSnow. Cloudy.17 mph100%29.45 "Hg1 mi
8:50 AM32 °FSnow. Mostly cloudy.17 mph100%29.47 "Hg1 mi
8:20 AM34 °FLight snow. Mostly cloudy.16 mph93%29.47 "Hg4 mi
7:50 AM34 °FSnow. Overcast.16 mph93%29.50 "Hg4 mi
7:20 AM34 °FRain. Overcast.18 mph93%29.53 "Hg4 mi
6:50 AM34 °FRain. Overcast.16 mph93%29.56 "Hg5 mi
6:20 AM34 °FSnow. Overcast.18 mph93%29.59 "Hg5 mi
5:50 AM34 °FSnow. Overcast.15 mph93%29.65 "Hg5 mi
5:20 AM34 °FRain. Mostly cloudy.15 mph93%29.71 "Hg4 mi
4:20 AM36 °FRain. Mostly cloudy.17 mph87%29.80 "HgN/A
3:50 AM36 °FLight rain. Passing clouds.16 mph87%29.83 "HgN/A
3:20 AM37 °FPartly cloudy.15 mph81%29.86 "HgN/A
2:50 AM36 °FClear.13 mph87%29.89 "Hg10 mi
2:20 AM36 °FClear.14 mph87%29.92 "Hg10 mi
1:50 AM36 °FClear.14 mph87%29.95 "Hg10 mi
1:20 AM36 °FClear.12 mph87%30.01 "Hg10 mi
12:50 AM36 °FClear.12 mph87%30.04 "Hg10 mi
12:20 AM36 °FClear.10 mph87%30.07 "Hg10 mi
11:50 PM
Dec 26
36 °FClear.9 mph87%30.09 "Hg10 mi
11:20 PM36 °FClear.8 mph87%30.12 "Hg10 mi
10:20 PM34 °FClear.7 mph93%30.15 "Hg10 mi
9:50 PM34 °FPartly cloudy.8 mph93%30.18 "HgN/A
9:20 PM36 °FClear.9 mph93%30.21 "Hg10 mi
8:50 PM36 °FPassing clouds.7 mph93%30.24 "HgN/A
8:20 PM36 °FPassing clouds.7 mph93%30.24 "HgN/A
7:50 PM36 °FPartly cloudy.7 mph93%30.27 "HgN/A
7:20 PM36 °FPartly cloudy.6 mph93%30.27 "HgN/A
6:50 PM36 °FPassing clouds.6 mph100%30.27 "HgN/A
6:20 PM37 °FSnow flurries. Passing clouds.6 mph93%30.30 "HgN/A
5:20 PM36 °FPassing clouds.6 mph100%30.33 "HgN/A
4:20 PM37 °FMore clouds than sun.5 mph93%30.33 "HgN/A
Weather by CustomWeather, © 2014

See weather overviewHow to use our weather pages